B52KF ZSPD-ZSHC

Flight info

Callsign B52KF
Flight time 0h 31m
Altitude 16000
Route SEA SHORE / HANGZHOU BAY SHORE / QIANTANG RIVER
Aircraft CL60/M-SBDE1E2E3FGHIJ4J5J7M3RWXYZ/LB1V1D1

Departure

Time 2026-05-09 05:28
Airport Shanghai Pudong International Airport (ZSPD)

Arrival

Time 2026-05-09 05:59
Airport Hangzhou Xiaoshan International Airport (ZSHC)
Time Latitude Longitude Altitude Speed Heading
2026-05-09 05:04 31.12784 121.78963 19 ft 0 kts 342°
2026-05-09 05:15 31.12785 121.78963 19 ft 0 kts 342°
2026-05-09 05:16 31.12777 121.78965 19 ft 2 kts 346°
2026-05-09 05:16 31.12762 121.78965 19 ft 2 kts 14°
2026-05-09 05:17 31.12749 121.78958 19 ft 2 kts 39°
2026-05-09 05:17 31.12740 121.78944 19 ft 2 kts 64°
2026-05-09 05:17 31.12738 121.78938 19 ft 0 kts 72°
2026-05-09 05:20 31.12740 121.78947 19 ft 4 kts 72°
2026-05-09 05:20 31.12754 121.78996 19 ft 8 kts 70°
2026-05-09 05:20 31.12812 121.79028 19 ft 14 kts 341°
2026-05-09 05:20 31.12928 121.78984 19 ft 19 kts 342°
2026-05-09 05:21 31.13072 121.78930 19 ft 23 kts 341°
2026-05-09 05:21 31.13239 121.78867 19 ft 26 kts 341°
2026-05-09 05:21 31.13423 121.78799 19 ft 29 kts 343°
2026-05-09 05:21 31.13627 121.78720 19 ft 31 kts 341°
2026-05-09 05:22 31.13832 121.78642 19 ft 31 kts 342°
2026-05-09 05:22 31.14038 121.78567 19 ft 29 kts 342°
2026-05-09 05:22 31.14231 121.78493 19 ft 30 kts 342°
2026-05-09 05:22 31.14440 121.78414 19 ft 32 kts 342°
2026-05-09 05:23 31.14664 121.78329 19 ft 34 kts 342°
2026-05-09 05:23 31.14882 121.78247 19 ft 29 kts 342°
2026-05-09 05:23 31.15073 121.78175 19 ft 29 kts 342°
2026-05-09 05:23 31.15277 121.78098 19 ft 31 kts 342°
2026-05-09 05:24 31.15388 121.78069 19 ft 10 kts 25°
2026-05-09 05:24 31.15419 121.78156 19 ft 13 kts 72°
2026-05-09 05:24 31.15435 121.78213 19 ft 0 kts 71°
2026-05-09 05:25 31.15440 121.78231 19 ft 5 kts 72°
2026-05-09 05:25 31.15490 121.78410 19 ft 15 kts 72°
2026-05-09 05:26 31.15527 121.78542 19 ft 18 kts 72°
2026-05-09 05:26 31.15556 121.78647 19 ft 0 kts 72°
2026-05-09 05:26 31.15566 121.78687 19 ft 15 kts 73°
2026-05-09 05:27 31.15581 121.78789 19 ft 10 kts 125°
2026-05-09 05:27 31.15494 121.78835 19 ft 28 kts 163°
2026-05-09 05:27 31.15015 121.79017 20 ft 121 kts 161°
2026-05-09 05:27 31.14013 121.79383 469 ft 168 kts 162°
2026-05-09 05:28 31.12849 121.79797 1467 ft 188 kts 160°
2026-05-09 05:28 31.11546 121.80276 2377 ft 206 kts 161°
2026-05-09 05:28 31.10171 121.80743 2852 ft 207 kts 162°
2026-05-09 05:28 31.08780 121.81207 2995 ft 206 kts 161°
2026-05-09 05:29 31.07389 121.81666 3009 ft 203 kts 162°
2026-05-09 05:29 31.06023 121.82119 3003 ft 202 kts 161°
2026-05-09 05:29 31.04668 121.82568 3003 ft 201 kts 161°
2026-05-09 05:29 31.03301 121.83020 3002 ft 200 kts 161°
2026-05-09 05:30 31.01957 121.83466 3002 ft 200 kts 161°
2026-05-09 05:30 31.00615 121.83907 3001 ft 200 kts 161°
2026-05-09 05:30 30.99394 121.84622 2995 ft 197 kts 134°
2026-05-09 05:30 30.98458 121.85806 3001 ft 197 kts 134°
2026-05-09 05:31 30.97392 121.86912 3165 ft 226 kts 138°
2026-05-09 05:31 30.96105 121.88133 4223 ft 252 kts 142°
2026-05-09 05:31 30.94640 121.89346 5584 ft 266 kts 143°
2026-05-09 05:31 30.93096 121.90599 6424 ft 274 kts 143°
2026-05-09 05:32 30.91520 121.91888 6822 ft 276 kts 144°
2026-05-09 05:32 30.89786 121.92844 6906 ft 278 kts 168°
2026-05-09 05:32 30.87840 121.92714 6901 ft 286 kts 197°
2026-05-09 05:32 30.85990 121.91813 6893 ft 287 kts 207°
2026-05-09 05:33 30.84518 121.90296 6905 ft 285 kts 237°
2026-05-09 05:33 30.83733 121.88184 6893 ft 285 kts 252°
2026-05-09 05:33 30.83132 121.85990 6891 ft 284 kts 252°
2026-05-09 05:33 30.82540 121.83788 6899 ft 285 kts 252°
2026-05-09 05:34 30.81953 121.81591 6902 ft 285 kts 252°
2026-05-09 05:34 30.81470 121.79334 6896 ft 285 kts 261°
2026-05-09 05:34 30.80924 121.77125 6893 ft 285 kts 246°
2026-05-09 05:34 30.80073 121.75034 6902 ft 285 kts 244°
2026-05-09 05:35 30.79202 121.72965 6901 ft 284 kts 244°
2026-05-09 05:35 30.78331 121.70900 6898 ft 283 kts 244°
2026-05-09 05:35 30.77450 121.68819 6889 ft 282 kts 244°
2026-05-09 05:35 30.76591 121.66787 6890 ft 283 kts 244°
2026-05-09 05:36 30.75718 121.64722 6888 ft 282 kts 244°
2026-05-09 05:36 30.75016 121.62569 6892 ft 283 kts 253°
2026-05-09 05:36 30.74455 121.60385 6888 ft 283 kts 254°
2026-05-09 05:36 30.73899 121.58173 6886 ft 283 kts 253°
2026-05-09 05:37 30.73343 121.55945 6886 ft 284 kts 254°
2026-05-09 05:37 30.72797 121.53744 6880 ft 283 kts 254°
2026-05-09 05:37 30.72257 121.51552 6885 ft 283 kts 254°
2026-05-09 05:37 30.71716 121.49340 6883 ft 283 kts 254°
2026-05-09 05:38 30.71172 121.47124 6882 ft 282 kts 254°
2026-05-09 05:38 30.70635 121.44945 6876 ft 282 kts 254°
2026-05-09 05:38 30.70086 121.42715 6875 ft 282 kts 254°
2026-05-09 05:38 30.69546 121.40532 6866 ft 281 kts 254°
2026-05-09 05:39 30.69005 121.38358 6865 ft 282 kts 254°
2026-05-09 05:39 30.68452 121.36137 6865 ft 282 kts 254°
2026-05-09 05:39 30.67902 121.33937 6868 ft 283 kts 253°
2026-05-09 05:39 30.67348 121.31722 6866 ft 283 kts 253°
2026-05-09 05:40 30.66806 121.29542 6869 ft 283 kts 253°
2026-05-09 05:40 30.66266 121.27348 6869 ft 283 kts 253°
2026-05-09 05:40 30.65722 121.25130 6863 ft 283 kts 253°
2026-05-09 05:40 30.65181 121.22926 6856 ft 282 kts 253°
2026-05-09 05:41 30.64644 121.20733 6853 ft 282 kts 253°
2026-05-09 05:41 30.64108 121.18541 6854 ft 282 kts 253°
2026-05-09 05:41 30.63570 121.16331 6847 ft 282 kts 253°
2026-05-09 05:41 30.63042 121.14162 6855 ft 282 kts 253°
2026-05-09 05:42 30.62497 121.11942 6855 ft 281 kts 253°
2026-05-09 05:42 30.61964 121.09786 6852 ft 282 kts 254°
2026-05-09 05:42 30.61413 121.07579 6842 ft 281 kts 253°
2026-05-09 05:42 30.60869 121.05399 6843 ft 282 kts 253°
2026-05-09 05:43 30.60327 121.03220 6846 ft 282 kts 254°
2026-05-09 05:43 30.59783 121.01037 6840 ft 282 kts 253°
2026-05-09 05:43 30.59238 120.98840 6846 ft 282 kts 253°
2026-05-09 05:43 30.58695 120.96652 6846 ft 281 kts 252°
2026-05-09 05:44 30.57797 120.94671 6855 ft 280 kts 227°
2026-05-09 05:44 30.56226 120.93378 6843 ft 278 kts 206°
2026-05-09 05:44 30.54392 120.92642 6840 ft 275 kts 185°
2026-05-09 05:44 30.52522 120.92979 6849 ft 273 kts 155°
2026-05-09 05:45 30.50977 120.94207 6850 ft 266 kts 141°
2026-05-09 05:45 30.49500 120.95459 6843 ft 263 kts 155°
2026-05-09 05:45 30.47752 120.96104 6834 ft 263 kts 166°
2026-05-09 05:45 30.45949 120.96603 6835 ft 264 kts 167°
2026-05-09 05:46 30.44157 120.97083 6807 ft 257 kts 167°
2026-05-09 05:46 30.42410 120.97297 6487 ft 254 kts 185°
2026-05-09 05:46 30.40649 120.96984 6108 ft 253 kts 189°
2026-05-09 05:46 30.38926 120.96609 5760 ft 250 kts 190°
2026-05-09 05:47 30.37229 120.96179 5411 ft 248 kts 199°
2026-05-09 05:47 30.35755 120.95123 5031 ft 249 kts 219°
2026-05-09 05:47 30.34543 120.93741 4852 ft 245 kts 225°
2026-05-09 05:47 30.33435 120.92225 4831 ft 249 kts 238°
2026-05-09 05:48 30.32993 120.90266 4829 ft 252 kts 271°
2026-05-09 05:48 30.33096 120.88254 4823 ft 252 kts 265°
2026-05-09 05:48 30.32513 120.86346 4832 ft 248 kts 232°
2026-05-09 05:48 30.31350 120.84850 4828 ft 248 kts 224°
2026-05-09 05:49 30.30143 120.83415 4830 ft 249 kts 229°
2026-05-09 05:49 30.29411 120.81598 4831 ft 252 kts 262°
2026-05-09 05:49 30.29578 120.79592 4829 ft 251 kts 283°
2026-05-09 05:49 30.29988 120.77675 4605 ft 245 kts 284°
2026-05-09 05:50 30.30412 120.75753 4154 ft 249 kts 284°
2026-05-09 05:50 30.30899 120.73826 3886 ft 245 kts 294°
2026-05-09 05:50 30.31919 120.72211 3851 ft 251 kts 313°
2026-05-09 05:50 30.33158 120.70690 3846 ft 268 kts 314°
2026-05-09 05:51 30.34469 120.69104 3855 ft 273 kts 314°
2026-05-09 05:51 30.35787 120.67509 3864 ft 274 kts 314°
2026-05-09 05:51 30.37110 120.65913 3867 ft 275 kts 314°
2026-05-09 05:51 30.38313 120.64220 3866 ft 274 kts 298°
2026-05-09 05:52 30.38807 120.62098 3863 ft 273 kts 274°
2026-05-09 05:52 30.38928 120.59924 3853 ft 268 kts 272°
2026-05-09 05:52 30.39023 120.57767 3465 ft 266 kts 272°
2026-05-09 05:52 30.38936 120.55634 3064 ft 261 kts 252°
2026-05-09 05:53 30.38110 120.53778 2971 ft 254 kts 235°
2026-05-09 05:53 30.37158 120.52121 2951 ft 238 kts 233°
2026-05-09 05:53 30.36127 120.50687 2798 ft 226 kts 223°
2026-05-09 05:53 30.34936 120.49552 2604 ft 216 kts 211°
2026-05-09 05:54 30.33639 120.48717 2380 ft 211 kts 205°
2026-05-09 05:54 30.32326 120.47955 2103 ft 209 kts 204°
2026-05-09 05:54 30.31021 120.47195 1908 ft 200 kts 204°
2026-05-09 05:54 30.29891 120.46390 1926 ft 190 kts 220°
2026-05-09 05:55 30.28980 120.45272 1920 ft 190 kts 224°
2026-05-09 05:55 30.28062 120.44160 1914 ft 185 kts 223°
2026-05-09 05:55 30.27301 120.42978 1597 ft 186 kts 241°
2026-05-09 05:55 30.26755 120.41644 1459 ft 187 kts 243°
2026-05-09 05:56 30.26197 120.40273 1456 ft 189 kts 241°
2026-05-09 05:56 30.25573 120.38910 1460 ft 190 kts 239°
2026-05-09 05:56 30.24962 120.37543 1462 ft 190 kts 242°
2026-05-09 05:56 30.24389 120.36173 1465 ft 190 kts 242°
2026-05-09 05:57 30.23784 120.34819 1438 ft 187 kts 230°
2026-05-09 05:57 30.22705 120.34146 1364 ft 168 kts 178°
2026-05-09 05:57 30.21706 120.34650 1369 ft 155 kts 128°
2026-05-09 05:57 30.21508 120.35864 1225 ft 157 kts 73°
2026-05-09 05:58 30.22038 120.36912 910 ft 149 kts 60°
2026-05-09 05:58 30.22535 120.37904 629 ft 136 kts 66°
2026-05-09 05:58 30.22947 120.38845 429 ft 128 kts 65°
2026-05-09 05:58 30.23351 120.39766 278 ft 127 kts 63°
2026-05-09 05:59 30.23755 120.40682 108 ft 125 kts 65°
2026-05-09 05:59 30.24141 120.41552 30 ft 111 kts 64°
2026-05-09 05:59 30.24362 120.42068 29 ft 34 kts 62°
2026-05-09 05:59 30.24477 120.42328 29 ft 32 kts 63°
2026-05-09 06:00 30.24543 120.42503 29 ft 20 kts 76°
2026-05-09 06:00 30.24557 120.42682 29 ft 20 kts 90°
2026-05-09 06:00 30.24529 120.42773 29 ft 11 kts 180°
2026-05-09 06:00 30.24461 120.42709 29 ft 15 kts 243°
2026-05-09 06:01 30.24405 120.42587 29 ft 19 kts 242°
2026-05-09 06:01 30.24340 120.42437 29 ft 22 kts 242°
2026-05-09 06:01 30.24264 120.42266 29 ft 25 kts 243°
2026-05-09 06:01 30.24179 120.42073 29 ft 28 kts 244°
2026-05-09 06:02 30.24085 120.41866 29 ft 30 kts 241°
2026-05-09 06:02 30.23991 120.41650 29 ft 28 kts 245°
2026-05-09 06:02 30.23903 120.41449 29 ft 29 kts 243°
2026-05-09 06:02 30.23806 120.41232 29 ft 30 kts 243°
2026-05-09 06:03 30.23726 120.41043 29 ft 24 kts 243°
2026-05-09 06:03 30.23644 120.40950 29 ft 15 kts 166°
2026-05-09 06:03 30.23561 120.40904 29 ft 15 kts 243°
2026-05-09 06:03 30.23523 120.40876 29 ft 4 kts 159°
2026-05-09 06:04 30.23497 120.40892 29 ft 3 kts 153°
2026-05-09 06:04 30.23491 120.40896 29 ft 0 kts 153°